Weather History for KHJO - July, 2014

Change the Weather History Date:

Monday, July 14, 2014

  Actual Average Record
Temperature  
Mean Temperature 87 °F 79 °F  
Max Temperature 103 °F 96 °F 105 °F (2005)
Min Temperature 71 °F 63 °F 59 °F (2009)
Degree Days  
Heating Degree Days 0    
Month to date heating degree days 0  
Since 1 June heating degree days 0  
Since 1 July heating degree days 0  
Cooling Degree Days 22    
Month to date cooling degree days 264  
Year to date cooling degree days 933  
Since 1 June cooling degree days 645  
Growing Degree Days 36 (Base 50)    
Moisture  
Dew Point 57 °F    
Average Humidity 47    
Maximum Humidity 79    
Minimum Humidity 15    
Precipitation  
Precipitation 0.00 in 0.00 in 0.03 in (1935)
Month to date precipitation 0.00 0.01  
Year to date precipitation 2.43 6.77  
Since 1 July precipitation 0.00  
Snow  
Snow 0.00 in - - ()
Month to date snowfall 0.0  
Since 1 June snowfall 0.0  
Since 1 July snowfall 0.0  
Snow Depth 0.00 in    
Sea Level Pressure  
Sea Level Pressure 29.83 in    
Wind  
Wind Speed 4 mph (NW)    
Max Wind Speed 12 mph    
Max Gust Speed 14 mph    
Visibility 9 miles    
Events      
T = Trace of Precipitation, MM = Missing Value Source: NWS Daily Summary

Daily Weather History Graph

Daily Weather History Graph

Search for Another Location

Airport or City:

Trip Planner

Search our weather history database for the weather conditions in past years. The results will help you decide how hot, cold, wet, or windy it might be!

Date:

Astronomy

Jul. 14, 2014 Rise Set
Actual Time 5:51 AM PDT 8:16 PM PDT
Civil Twilight 5:22 AM PDT 8:46 PM PDT
Nautical Twilight 4:45 AM PDT 9:22 PM PDT
Astronomical Twilight 4:05 AM PDT 10:02 PM PDT
Moon 9:56 PM PDT (7/14) 8:34 AM PDT (7/14)
Length of Visible Light 15h 24m
Length of Day
14h 24m
Waning Gibbous, 92% of the Moon is Illuminated
Jul 14
Waning Gibbous
Jul 18
Last Quarter
Jul 26
New
Aug 3
First Quarter
Aug 10
Full

Hourly Weather History & Observations

Time (PDT) Temp. Heat Index Dew Point Humidity Pressure Visibility Wind Dir Wind Speed Gust Speed Precip Events Conditions
12:53 AM 82.0 °F 82.1 °F 59.0 °F 45% 29.82 in 10.0 mi NW 5.8 mph - N/A   Clear
1:53 AM 75.9 °F - 62.1 °F 62% 29.82 in 10.0 mi Calm Calm - N/A   Clear
2:53 AM 75.0 °F - 63.0 °F 66% 29.81 in 10.0 mi Calm Calm - N/A   Clear
3:53 AM 72.0 °F - 64.0 °F 76% 29.83 in 9.0 mi South 5.8 mph - N/A   Clear
4:53 AM 72.0 °F - 64.0 °F 76% 29.83 in 9.0 mi SSW 4.6 mph - N/A   Clear
5:53 AM 71.1 °F - 62.1 °F 73% 29.83 in 9.0 mi Calm Calm - N/A   Clear
6:53 AM 75.0 °F - 60.1 °F 60% 29.85 in 4.0 mi Calm Calm - N/A   Haze
7:53 AM 81.0 °F 81.6 °F 60.1 °F 49% 29.86 in 9.0 mi East 6.9 mph - N/A   Clear
8:53 AM 84.9 °F 85.0 °F 61.0 °F 44% 29.86 in 7.0 mi NNW 3.5 mph - N/A   Clear
9:53 AM 87.1 °F 85.7 °F 55.9 °F 35% 29.86 in 10.0 mi NE 5.8 mph - N/A   Clear
10:53 AM 89.1 °F 87.1 °F 55.0 °F 31% 29.84 in 10.0 mi Calm Calm - N/A   Partly Cloudy
1:53 PM 96.1 °F - 52.0 °F 22% 29.84 in 10.0 mi WSW 6.9 mph - N/A   Clear
3:53 PM 102.0 °F - 46.0 °F 15% 29.82 in 10.0 mi WNW 8.1 mph - N/A   Scattered Clouds
4:53 PM 102.0 °F - 48.0 °F 16% 29.82 in 10.0 mi NNW 6.9 mph - N/A   Mostly Cloudy
5:53 PM 102.0 °F - 48.0 °F 16% 29.81 in 10.0 mi WNW 6.9 mph - N/A   Mostly Cloudy
6:53 PM 100.0 °F 97.9 °F 53.1 °F 21% 29.81 in 10.0 mi NNE 5.8 mph - N/A   Mostly Cloudy
7:53 PM 95.0 °F 93.7 °F 57.0 °F 28% 29.81 in 10.0 mi North 5.8 mph - N/A   Mostly Cloudy
8:53 PM 91.0 °F 88.9 °F 55.0 °F 29% 29.83 in 10.0 mi NNW 4.6 mph - N/A   Mostly Cloudy
9:53 PM 87.1 °F 86.5 °F 59.0 °F 39% 29.84 in 10.0 mi Calm Calm - N/A   Partly Cloudy
10:53 PM 84.0 °F 84.0 °F 60.1 °F 44% 29.86 in 10.0 mi NW 4.6 mph - N/A   Clear
11:53 PM 86.0 °F 85.4 °F 59.0 °F 40% 29.86 in 10.0 mi NW 4.6 mph - N/A   Clear